• In Hungary
  • List of Countries
  • For 7 days
  • Water Temperature
  • Satellite Maps
  • Weather Map
  • News
  • Weather Widgets
  • user-avatar
    Login

    Hourly Weather San Juan del Sur

    Today, 19 October, Thursday

    Time Temperature Precipitation Wind Pressure Humidity
    00:00 +28°C° 0 mm 6 mps 751 mmHg 88%
    01:00 +28°C° 0.1 mm 6 mps 751 mmHg 88%
    02:00 +28°C° 0.1 mm 6 mps 751 mmHg 89%
    03:00 +28°C° 0.1 mm 6 mps 750 mmHg 89%
    04:00 +28°C° 0.1 mm 6 mps 751 mmHg 89%
    05:00 +28°C° 0.1 mm 6 mps 751 mmHg 88%
    06:00 +28°C° 0.1 mm 7 mps 751 mmHg 88%
    07:00 +29°C° 0 mm 7 mps 751 mmHg 85%
    08:00 +29°C° 0 mm 7 mps 752 mmHg 83%
    09:00 +30°C° 0 mm 7 mps 752 mmHg 80%
    10:00 +32°C° 0.2 mm 7 mps 752 mmHg 77%
    11:00 +33°C° 0.2 mm 7 mps 751 mmHg 74%
    12:00 +33°C° 0.2 mm 7 mps 751 mmHg 72%
    13:00 +33°C° 0 mm 7 mps 750 mmHg 72%
    14:00 +33°C° 0 mm 7 mps 750 mmHg 73%
    15:00 +33°C° 0 mm 7 mps 749 mmHg 74%
    16:00 +32°C° 0 mm 7 mps 749 mmHg 76%
    17:00 +30°C° 0 mm 6 mps 750 mmHg 79%
    18:00 +29°C° 0 mm 6 mps 750 mmHg 82%
    19:00 +29°C° 0.1 mm 6 mps 750 mmHg 83%
    20:00 +29°C° 0.1 mm 6 mps 751 mmHg 84%
    21:00 +28°C° 0.1 mm 6 mps 751 mmHg 86%
    22:00 +28°C° 0.7 mm 6 mps 751 mmHg 86%
    23:00 +28°C° 0.7 mm 6 mps 751 mmHg 86%

    Tomorrow, 20 October, Friday

    Time Temperature Precipitation Wind Pressure Humidity
    00:00 +28°C° 0.7 mm 6 mps 751 mmHg 87%
    01:00 +28°C° 0.6 mm 6 mps 751 mmHg 86%
    02:00 +28°C° 0.6 mm 6 mps 750 mmHg 86%
    03:00 +28°C° 0.6 mm 6 mps 750 mmHg 86%
    04:00 +28°C° 0 mm 6 mps 750 mmHg 86%
    05:00 +28°C° 0 mm 6 mps 750 mmHg 86%
    06:00 +28°C° 0 mm 7 mps 751 mmHg 87%
    07:00 +28°C° 0 mm 7 mps 751 mmHg 85%
    08:00 +29°C° 0 mm 7 mps 751 mmHg 82%
    09:00 +30°C° 0 mm 7 mps 752 mmHg 80%
    10:00 +32°C° 0 mm 7 mps 751 mmHg 78%
    11:00 +32°C° 0 mm 6 mps 751 mmHg 75%
    12:00 +33°C° 0 mm 6 mps 750 mmHg 73%
    13:00 +33°C° 0 mm 5 mps 750 mmHg 73%
    14:00 +33°C° 0 mm 5 mps 749 mmHg 72%
    15:00 +33°C° 0 mm 5 mps 748 mmHg 72%
    16:00 +32°C° 0.4 mm 5 mps 749 mmHg 77%
    17:00 +30°C° 0.4 mm 5 mps 749 mmHg 82%
    18:00 +28°C° 0.4 mm 5 mps 749 mmHg 86%
    19:00 +28°C° 0.9 mm 5 mps 750 mmHg 87%
    20:00 +28°C° 0.9 mm 5 mps 751 mmHg 87%
    21:00 +28°C° 0.9 mm 5 mps 751 mmHg 87%
    22:00 +28°C° 0.2 mm 4 mps 751 mmHg 87%
    23:00 +28°C° 0.2 mm 4 mps 751 mmHg 87%

    Day after tomorrow, 21 October, Saturday

    Time Temperature Precipitation Wind Pressure Humidity
    00:00 +27°C° 0.2 mm 4 mps 751 mmHg 87%
    01:00 +27°C° 0 mm 4 mps 750 mmHg 88%
    02:00 +27°C° 0 mm 4 mps 750 mmHg 89%
    03:00 +27°C° 0 mm 4 mps 749 mmHg 90%
    04:00 +27°C° 0 mm 4 mps 750 mmHg 91%
    05:00 +27°C° 0 mm 4 mps 750 mmHg 91%
    06:00 +27°C° 0 mm 4 mps 750 mmHg 91%
    07:00 +28°C° 0 mm 4 mps 751 mmHg 86%
    08:00 +29°C° 0 mm 4 mps 752 mmHg 82%
    09:00 +32°C° 0 mm 5 mps 752 mmHg 77%
    10:00 +32°C° 0 mm 5 mps 752 mmHg 75%
    11:00 +33°C° 0 mm 4 mps 751 mmHg 73%
    12:00 +33°C° 0 mm 4 mps 751 mmHg 71%
    13:00 +33°C° 0.1 mm 4 mps 750 mmHg 72%
    14:00 +33°C° 0.1 mm 4 mps 750 mmHg 74%
    15:00 +31°C° 0.1 mm 3 mps 749 mmHg 75%
    16:00 +30°C° 1 mm 4 mps 749 mmHg 79%
    17:00 +29°C° 1 mm 4 mps 750 mmHg 83%
    18:00 +28°C° 1 mm 4 mps 750 mmHg 86%
    19:00 +28°C° 1.4 mm 4 mps 751 mmHg 86%
    20:00 +28°C° 1.4 mm 4 mps 751 mmHg 86%
    21:00 +28°C° 1.4 mm 5 mps 752 mmHg 86%
    22:00 +28°C° 0.8 mm 5 mps 752 mmHg 87%
    23:00 +28°C° 0.8 mm 5 mps 752 mmHg 88%

    22 October, Sunday

    Time Temperature Precipitation Wind Pressure Humidity
    00:00 +28°C° 0.8 mm 5 mps 751 mmHg 89%
    01:00 +27°C° 0.8 mm 5 mps 751 mmHg 90%
    02:00 +27°C° 0.8 mm 5 mps 751 mmHg 92%
    03:00 +27°C° 0.8 mm 5 mps 750 mmHg 93%
    04:00 +27°C° 0.6 mm 5 mps 751 mmHg 94%
    05:00 +27°C° 0.6 mm 5 mps 751 mmHg 94%
    06:00 +27°C° 0.6 mm 5 mps 751 mmHg 95%
    07:00 +27°C° 0.3 mm 5 mps 752 mmHg 93%
    08:00 +28°C° 0.3 mm 5 mps 752 mmHg 91%
    09:00 +28°C° 0.3 mm 5 mps 753 mmHg 89%
    10:00 +29°C° 0 mm 5 mps 752 mmHg 84%
    11:00 +32°C° 0 mm 4 mps 752 mmHg 79%
    12:00 +33°C° 0 mm 4 mps 751 mmHg 74%
    13:00 +33°C° 0.1 mm 4 mps 751 mmHg 75%
    14:00 +32°C° 0.1 mm 4 mps 750 mmHg 76%
    15:00 +32°C° 0.1 mm 4 mps 750 mmHg 77%
    16:00 +30°C° 1.1 mm 5 mps 750 mmHg 80%
    17:00 +29°C° 1.1 mm 5 mps 750 mmHg 83%
    18:00 +28°C° 1.1 mm 6 mps 751 mmHg 87%
    19:00 +28°C° 0.6 mm 6 mps 751 mmHg 87%
    20:00 +28°C° 0.6 mm 7 mps 752 mmHg 87%
    21:00 +28°C° 0.6 mm 7 mps 752 mmHg 87%
    22:00 +28°C° 0.4 mm 7 mps 752 mmHg 87%
    23:00 +28°C° 0.4 mm 7 mps 752 mmHg 87%

    23 October, Monday

    Time Temperature Precipitation Wind Pressure Humidity
    00:00 +28°C° 0.4 mm 7 mps 751 mmHg 88%
    01:00 +28°C° 0.8 mm 7 mps 751 mmHg 88%
    02:00 +27°C° 0.8 mm 6 mps 751 mmHg 88%
    03:00 +27°C° 0.8 mm 6 mps 750 mmHg 88%
    04:00 +27°C° 0.4 mm 6 mps 751 mmHg 88%
    05:00 +27°C° 0.4 mm 6 mps 751 mmHg 89%
    06:00 +27°C° 0.4 mm 6 mps 751 mmHg 89%
    07:00 +28°C° 0.1 mm 6 mps 752 mmHg 86%
    08:00 +29°C° 0.1 mm 6 mps 752 mmHg 83%
    09:00 +30°C° 0.1 mm 6 mps 752 mmHg 80%
    10:00 +32°C° 0.4 mm 6 mps 752 mmHg 79%
    11:00 +32°C° 0.4 mm 5 mps 751 mmHg 77%
    12:00 +33°C° 0.4 mm 5 mps 750 mmHg 76%
    13:00 +33°C° 0.9 mm 5 mps 750 mmHg 76%
    14:00 +32°C° 0.9 mm 4 mps 749 mmHg 77%
    15:00 +32°C° 0.9 mm 4 mps 749 mmHg 77%
    16:00 +30°C° 1.8 mm 4 mps 749 mmHg 81%
    17:00 +29°C° 1.8 mm 4 mps 750 mmHg 84%
    18:00 +28°C° 1.8 mm 4 mps 750 mmHg 88%
    19:00 +28°C° 1.9 mm 4 mps 750 mmHg 88%
    20:00 +28°C° 1.9 mm 5 mps 751 mmHg 88%
    21:00 +28°C° 1.9 mm 5 mps 751 mmHg 89%
    22:00 +28°C° 1.1 mm 5 mps 751 mmHg 89%
    23:00 +27°C° 1.1 mm 5 mps 751 mmHg 89%

    24 October, Tuesday

    Time Temperature Precipitation Wind Pressure Humidity
    00:00 +27°C° 1.1 mm 5 mps 750 mmHg 90%
    01:00 +27°C° 0.2 mm 4 mps 750 mmHg 90%
    02:00 +27°C° 0.2 mm 4 mps 750 mmHg 90%
    03:00 +27°C° 0.2 mm 3 mps 749 mmHg 90%
    04:00 +27°C° 0.6 mm 3 mps 750 mmHg 91%
    05:00 +27°C° 0.6 mm 3 mps 750 mmHg 91%
    06:00 +27°C° 0.6 mm 3 mps 751 mmHg 91%
    07:00 +28°C° 0.9 mm 3 mps 751 mmHg 88%
    08:00 +29°C° 0.9 mm 3 mps 751 mmHg 84%
    09:00 +30°C° 0.9 mm 3 mps 751 mmHg 81%
    10:00 +31°C° 1.3 mm 3 mps 751 mmHg 80%
    11:00 +31°C° 1.3 mm 3 mps 750 mmHg 79%
    12:00 +31°C° 1.3 mm 3 mps 749 mmHg 78%
    13:00 +31°C° 2.1 mm 2 mps 749 mmHg 80%
    14:00 +30°C° 2.1 mm 2 mps 748 mmHg 82%
    15:00 +30°C° 2.1 mm 2 mps 748 mmHg 83%
    16:00 +29°C° 2.1 mm 2 mps 748 mmHg 86%
    17:00 +28°C° 2.1 mm 2 mps 749 mmHg 88%
    18:00 +28°C° 2.1 mm 2 mps 749 mmHg 91%
    19:00 +27°C° 1.6 mm 3 mps 750 mmHg 92%
    20:00 +27°C° 1.6 mm 3 mps 750 mmHg 92%
    21:00 +27°C° 1.6 mm 4 mps 751 mmHg 92%
    22:00 +27°C° 2.1 mm 4 mps 751 mmHg 93%
    23:00 +27°C° 2.1 mm 5 mps 750 mmHg 93%
    Show more